Weather observations for the past three days for
San Diego, Brown Field Municipal Airport
Metric (Imperial)
Date Time (pdt) Wind (kph) Vis. (km) Weather Sky Cond. Temperature (ºC) Relative Humidity Wind Chill (°C) Heat Index (°C) Pressure Precipitation (cm)
Air Dwpt 6 hour altimeter (cm) sea level (mb) 1 hr 3 hr 6 hr
Max. Min.
21 10:53 NW 13 11.27 Fair CLR 23.3 15 23.3 16.7 60% 75.62 1007.7
21 09:53 Vrbl 6 14.48 Fair CLR 22.2 14.4 61% 75.62 1007.8
21 08:53 Calm 11.27 A Few Clouds FEW009 19.4 15 76% 75.64 1007.9
21 07:53 Vrbl 6 8.05 Overcast with Haze OVC005 17.2 14.4 84% 75.62 1007.8
21 06:53 Calm 0.00 NULL NULL 16.7 14.4 86% 75.64 1007.9
21 05:53 Calm 6.44 Fog/Mist OVC006 16.7 14.4 86% 75.62 1007.7
21 04:53 Calm 11.27 Overcast OVC006 16.7 14.4 17.2 16.1 86% 75.59 1007.4
21 03:53 Calm 11.27 Overcast OVC007 16.7 14.4 86% 75.59 1007.2
21 02:53 Calm 9.66 Fog/Mist OVC008 16.7 14.4 86% 75.59 1007.2
21 01:53 Calm 8.05 Fog/Mist OVC009 16.1 14.4 90% 75.62 1007.6
21 00:53 Calm 12.87 Overcast OVC011 16.7 14.4 86% 75.64 1008.1
20 23:53 Calm 11.27 Overcast OVC010 16.1 14.4 90% 75.67 1008.3
20 22:53 Calm 12.87 Overcast OVC011 16.7 14.4 22.2 16.1 86% 75.67 1008.4
20 21:53 W 7 16.09 Overcast OVC011 16.7 14.4 86% 75.67 1008.5
20 20:53 W 11 16.09 Fair CLR 17.2 14.4 84% 75.64 1008.2
20 19:53 W 11 14.48 Fair CLR 17.8 14.4 81% 75.64 1008.1
20 18:53 W 13 16.09 Fair CLR 19.4 14.4 73% 75.64 1008.0
20 17:53 Vrbl 11 16.09 Fair CLR 21.7 14.4 63% 75.62 1007.6
20 16:53 Vrbl 11 16.09 Fair CLR 21.7 13.9 23.9 21.7 61% 75.64 1007.9
20 15:53 W 13 G 31 16.09 Fair CLR 21.7 13.9 61% 75.67 1008.5
20 14:53 W 15 G 30 16.09 Fair CLR 22.8 13.9 57% 75.72 1008.9
20 13:53 W 11 14.48 Fair CLR 22.8 13.9 57% 75.74 1009.4
20 12:53 NW 13 G 28 14.48 Fair CLR 22.8 14.4 59% 75.77 1009.7
20 11:53 W 11 14.48 Fair CLR 23.3 14.4 57% 75.79 1010.0
20 10:53 Calm 12.87 Fair CLR 23.3 14.4 23.3 15.6 57% 75.77 1009.7
20 09:53 Calm 11.27 Fair CLR 20.6 14.4 68% 75.79 1009.9
20 08:53 W 7 11.27 Mostly Cloudy BKN010 18.3 13.9 76% 75.79 1010.1
20 07:53 Vrbl 6 4.83 Overcast with Haze OVC007 16.7 13.9 84% 75.77 1009.9
20 06:53 NE 6 6.44 Fog/Mist OVC006 16.1 13.9 87% 75.77 1009.6
20 05:53 NE 6 3.22 Fog/Mist OVC006 15.6 13.3 86% 75.72 1009.2
20 04:53 NE 6 9.66 Overcast with Haze OVC006 16.1 13.3 16.1 14.4 84% 75.69 1008.8
20 03:53 Calm 11.27 Overcast OVC007 15.6 13.3 86% 75.69 1008.8
20 02:53 Calm 8.05 Fog/Mist OVC009 15 13.3 90% 75.72 1009.2
20 01:53 Calm 14.48 Overcast OVC014 15 12.8 87% 75.74 1009.4
20 00:53 Calm 14.48 Overcast OVC013 15.6 12.8 84% 75.77 1009.8
19 23:53 Calm 6.44 Overcast with Haze OVC014 15.6 12.8 84% 75.82 1010.4
19 22:53 Calm 12.87 Overcast OVC014 15.6 13.3 21.1 15.6 86% 75.84 1010.6
19 21:53 Calm 14.48 Overcast SCT010 OVC014 16.1 13.3 84% 75.84 1010.6
19 20:53 W 9 16.09 Fair CLR 16.1 13.3 84% 75.79 1010.1
19 19:53 Vrbl 7 16.09 Fair CLR 17.2 12.8 76% 75.77 1009.9
19 18:53 Vrbl 9 16.09 Fair CLR 18.3 13.3 73% 75.77 1009.8
19 17:53 W 11 14.48 Fair CLR 19.4 13.3 68% 75.77 1009.8
19 16:53 W 13 16.09 Fair CLR 20.6 13.3 22.8 20 63% 75.79 1010.0
19 15:53 NW 11 12.87 Fair CLR 21.1 13.3 61% 75.82 1010.4
19 14:53 NW 13 14.48 Fair CLR 22.2 13.3 57% 75.82 1010.4
19 13:53 NW 13 11.27 Fair CLR 22.8 13.3 55% 75.84 1010.7
19 12:53 W 15 11.27 Fair CLR 21.7 13.3 59% 75.87 1011.1
19 11:53 W 13 12.87 Fair CLR 21.1 13.3 61% 75.9 1011.3
19 10:53 W 20 G 28 11.27 Fair CLR 21.1 13.3 21.7 15 61% 75.87 1011.1
19 09:53 Vrbl 6 9.66 Partly Cloudy with Haze SCT015 20.6 12.8 61% 75.84 1010.7
19 08:53 W 7 9.66 Partly Cloudy with Haze SCT014 19.4 13.3 68% 75.84 1010.9
19 07:53 Calm 4.83 Overcast with Haze OVC011 17.2 13.3 78% 75.82 1010.6
19 06:53 Calm 4.83 Overcast with Haze OVC011 16.1 12.8 81% 75.79 1010.2
19 05:53 Calm 11.27 Overcast OVC011 15.6 12.8 84% 75.77 1009.7
19 04:53 Calm 8.05 Overcast with Haze OVC012 15.6 12.8 16.1 12.8 84% 75.72 1009.1
19 03:53 Calm 11.27 Overcast OVC013 13.9 11.7 87% 75.72 1009.1
19 02:53 SW 6 14.48 Overcast OVC011 14.4 11.7 84% 75.69 1008.7
19 01:53 NE 7 14.48 Overcast OVC011 16.1 12.8 81% 75.72 1009.0
19 00:53 Calm 12.87 Overcast OVC010 16.1 12.8 81% 75.74 1009.5
18 23:53 N 6 4.83 Overcast with Haze OVC011 16.1 12.8 81% 75.79 1010.0
18 22:53 Calm 12.87 Overcast OVC014 15.6 12.8 21.7 15 84% 75.79 1010.0
18 21:53 Calm 12.87 Overcast OVC016 15.6 12.2 80% 75.77 1009.7
18 20:53 W 9 14.48 Fair CLR 15.6 12.2 80% 75.72 1009.1
18 19:53 W 7 12.87 Fair CLR 16.1 12.2 78% 75.67 1008.4
18 18:53 W 11 12.87 Fair CLR 17.8 12.8 73% 75.67 1008.4
18 17:53 W 17 14.48 Fair CLR 20.6 12.8 61% 75.64 1008.0
18 16:53 S 11 16.09 Fair CLR 21.1 12.8 25 20 59% 75.67 1008.2
18 15:53 W 15 16.09 Fair CLR 21.1 12.2 57% 75.67 1008.4
18 14:53 W 22 G 37 16.09 Fair CLR 22.2 12.2 53% 75.67 1008.4
18 13:53 SW 17 G 28 16.09 Fair CLR 23.9 12.8 50% 25 75.62 1007.8
18 12:53 NW 11 12.87 Fair CLR 24.4 13.3 50% 26 75.62 1007.7
18 11:53 W 13 12.87 Fair CLR 22.2 13.3 57% 75.64 1007.9
Date Time (pdt) Wind (kph) Vis. (km) Weather Sky Cond. Air Dwpt Max. Min. Relative Humidity Wind Chill (°C) Heat Index (°C) altimeter (cm) sea level (mb) 1 hr 3 hr 6 hr
6 hour
Temperature (ºC) Pressure Precipitation (cm)